Change the Weather History Date:

Friday, October 5, 2012

  Actual Average Record
Temperature  
Mean Temperature 70 °F -  
Max Temperature 73 °F 83 °F 87 °F (2002)
Min Temperature 68 °F 68 °F 66 °F (2004)
Cooling Degree Days 6    
Growing Degree Days 20 (Base 50)    
Moisture  
Dew Point 70 °F    
Average Humidity 95    
Maximum Humidity 100    
Minimum Humidity 92    
Precipitation  
Precipitation 0.43 in 0.14 in - ()
Sea Level Pressure  
Sea Level Pressure 29.96 in    
Wind  
Wind Speed 2 mph ()    
Max Wind Speed 12 mph    
Max Gust Speed -    
Visibility 10.8 miles    
Events Rain    
Averages and records for this station are not official NWS values.
T = Trace of Precipitation, MM = Missing Value Source: Averaged Metar Reports

Daily Weather History Graph

Daily Weather History Graph

Search for Another Location

Airport or City:

Trip Planner

Search our weather history database for the weather conditions in past years. The results will help you decide how hot, cold, wet, or windy it might be!

Date:

Astronomy

Oct. 05, 2012 Rise Set
Actual Time 5:49 AM FJT 6:08 PM FJT
Civil Twilight 5:27 AM FJT 6:30 PM FJT
Nautical Twilight 5:01 AM FJT 6:55 PM FJT
Astronomical Twilight 4:36 AM FJT 7:21 PM FJT
Moon 10:19 PM FJT (10/5) 8:57 AM FJT (10/5)
Length of Visible Light 13h 02m
Length of Day
12h 19m
Waning Gibbous, 79% of the Moon is Illuminated
Oct 5
Waning Gibbous
Oct 8
Last Quarter
Oct 16
New
Oct 22
First Quarter
Oct 30
Full

Hourly Weather History & Observations

Time (FJT) Temp. Dew Point Humidity Pressure Visibility Wind Dir Wind Speed Gust Speed Precip Events Conditions
12:00 AM 71 °F 69 °F 92% 29.94 in 12 mi Calm Calm - - Rain Light Rain
12:00 AM 71.6 °F 69.8 °F 94% 29.92 in 24.9 mi Calm Calm - N/A Rain Light Rain
1:00 AM 69.8 °F 69.8 °F 100% 29.92 in 24.9 mi Calm Calm - N/A Rain Light Rain
2:00 AM 69.8 °F 69.8 °F 100% 29.92 in 18.6 mi Calm Calm - N/A Rain Light Rain
3:00 AM 70 °F 69 °F 94% 29.94 in 12 mi South 4.6 mph - - Rain Light Rain
3:00 AM 69.8 °F 68.0 °F 94% 29.92 in 18.6 mi South 4.6 mph - N/A Rain Light Rain
4:00 AM 69.8 °F 68.0 °F 94% 29.92 in 12.4 mi SE 4.6 mph - N/A Rain Light Rain
5:00 AM 69.8 °F 68.0 °F 94% 29.92 in 12.4 mi ESE 4.6 mph - N/A Rain Light Rain
6:00 AM 69 °F 69 °F 99% 29.95 in 12 mi Calm Calm - - Rain Light Rain
6:00 AM 69.8 °F 68.0 °F 94% 29.95 in 24.9 mi Calm Calm - N/A Rain Light Rain
7:00 AM 69.8 °F 68.0 °F 94% 29.95 in 28.0 mi Calm Calm - N/A   Overcast
8:00 AM 71.6 °F 69.8 °F 94% 29.98 in 6.2 mi Calm Calm - N/A Rain Light Rain
8:15 AM 71.6 °F 69.8 °F 94% 29.98 in 5.0 mi Calm Calm - N/A Rain Light Rain
9:00 AM 71 °F 70 °F 97% 30.00 in 2 mi Calm Calm - - Rain Rain
9:00 AM 71.6 °F 69.8 °F 94% 29.98 in 5.0 mi Calm Calm - N/A Rain Rain
10:00 AM 71.6 °F 69.8 °F 94% 30.01 in 5.0 mi Calm Calm - N/A Rain Light Rain
11:00 AM 71.6 °F 69.8 °F 94% 30.01 in 5.0 mi Calm Calm - N/A Rain Light Rain
12:00 PM 73 °F 72 °F 95% 29.98 in 2 mi East 3.5 mph - - Rain Rain
12:00 PM 73.4 °F 71.6 °F 94% 29.98 in 5.0 mi East 3.5 mph - N/A Rain Rain
1:00 PM 73.4 °F 71.6 °F 94% 29.95 in 6.2 mi SE 4.6 mph - N/A Rain Light Rain
2:00 PM 73.4 °F 71.6 °F 94% 29.92 in 18.6 mi SE 5.8 mph - N/A Rain Light Rain
3:00 PM 73 °F 71 °F 93% 29.94 in 12 mi South 5.8 mph - - Rain Light Rain
3:00 PM 73.4 °F 71.6 °F 94% 29.92 in 18.6 mi South 5.8 mph - N/A Rain Light Rain
4:00 PM 73.4 °F 71.6 °F 94% 29.92 in 18.6 mi Calm Calm - N/A Rain Light Rain
5:00 PM 73.4 °F 71.6 °F 94% 29.92 in 18.6 mi Calm Calm - N/A Rain Light Rain
6:00 PM 73 °F 72 °F 96% 29.96 in 12 mi Calm Calm - - Rain Light Rain
6:00 PM 73.4 °F 71.6 °F 94% 29.95 in 24.9 mi Calm Calm - N/A Rain Light Rain
7:00 PM 73.4 °F 71.6 °F 94% 29.98 in 21.8 mi Calm Calm - N/A   Overcast
8:00 PM 71.6 °F 71.6 °F 100% 30.01 in 6.2 mi SSW 4.6 mph - N/A Rain Light Rain
9:00 PM 71 °F 71 °F 100% 30.02 in 6 mi East 11.5 mph - - Rain Light Rain
9:00 PM 71.6 °F 71.6 °F 100% 30.01 in 6.2 mi ENE 11.5 mph - N/A Rain Light Rain
10:00 PM 69.8 °F 69.8 °F 100% 30.01 in 15.5 mi East 9.2 mph - N/A Rain Light Rain
11:00 PM 69.8 °F 68.0 °F 94% 30.01 in 18.6 mi SSW 6.9 mph - N/A   Overcast